Big Rapids, MI

11:29 AM EST on December 07, 2016 (GMT -0500)
Roben-Hood

Weather History for KRQB - June, 2013

Change the Weather History Date:

Sunday, June 9, 2013

  Actual Average Record
Temperature  
Mean Temperature 61 °F -  
Max Temperature 74 °F 75 °F 89 °F (1976)
Min Temperature 48 °F 50 °F 36 °F (1977)
Degree Days  
Heating Degree Days 4    
Growing Degree Days 11 (Base 50)    
Moisture  
Dew Point 52 °F    
Average Humidity 67    
Maximum Humidity 96    
Minimum Humidity 47    
Precipitation  
Precipitation 0.00 in - - ()
Sea Level Pressure  
Sea Level Pressure 30.04 in    
Wind  
Wind Speed 5 mph (ESE)    
Max Wind Speed 18 mph    
Max Gust Speed 25 mph    
Visibility 10 miles    
Events      
Averages and records for this station are not official NWS values.
T = Trace of Precipitation, MM = Missing Value Source: NWS Daily Summary

Daily Weather History Graph

Daily Weather History Graph

Search for Another Location

Airport or City:

Trip Planner

Search our weather history database for the weather conditions in past years. The results will help you decide how hot, cold, wet, or windy it might be!

Date:

Astronomy

Jun. 09, 2013 Rise Set
Actual Time 6:00 AM EDT 9:22 PM EDT
Civil Twilight 5:24 AM EDT 9:58 PM EDT
Nautical Twilight 4:37 AM EDT 10:45 PM EDT
Astronomical Twilight 3:39 AM EDT 11:43 PM EDT
Moon 6:58 AM EDT (6/9) 10:06 PM EDT (6/9)
Length of Visible Light 16h 34m
Length of Day
15h 22m
New Moon, 1% of the Moon is Illuminated
Jun 9
New Moon
Jun 16
First Quarter
Jun 23
Full
Jun 30
Last Quarter
Jul 8
New

Hourly Weather History & Observations

Time (EDT) Temp. Dew Point Humidity Pressure Visibility Wind Dir Wind Speed Gust Speed Precip Events Conditions
12:15 AM 55.6 °F 47.8 °F 75% 30.07 in 10.0 mi Calm Calm - N/A   Clear
12:35 AM 54.0 °F 47.1 °F 78% 30.07 in 10.0 mi Calm Calm - N/A   Clear
12:55 AM 53.8 °F 48.9 °F 84% 30.07 in 10.0 mi Calm Calm - N/A   Clear
1:15 AM 52.5 °F 47.8 °F 84% 30.08 in 10.0 mi Calm Calm - N/A   Clear
1:35 AM 51.8 °F 49.3 °F 91% 30.08 in 10.0 mi Calm Calm - N/A   Clear
1:55 AM 51.8 °F 49.6 °F 92% 30.08 in 10.0 mi West 3.5 mph - N/A   Clear
2:15 AM 51.3 °F 49.6 °F 94% 30.08 in 10.0 mi West 4.6 mph - N/A   Clear
2:35 AM 51.1 °F 49.1 °F 93% 30.09 in 10.0 mi West 6.9 mph - N/A   Clear
2:55 AM 50.9 °F 48.9 °F 93% 30.08 in 10.0 mi West 4.6 mph - N/A   Clear
3:15 AM 50.4 °F 48.4 °F 93% 30.09 in 10.0 mi Calm Calm - N/A   Clear
3:35 AM 50.0 °F 47.8 °F 92% 30.09 in 10.0 mi Calm Calm - N/A   Clear
3:55 AM 50.0 °F 48.4 °F 94% 30.09 in 10.0 mi Calm Calm - N/A   Clear
4:15 AM 49.3 °F 47.3 °F 93% 30.08 in 10.0 mi Calm Calm - N/A   Clear
4:35 AM 48.7 °F 47.3 °F 95% 30.08 in 10.0 mi West 3.5 mph - N/A   Clear
4:55 AM 49.6 °F 48.2 °F 95% 30.08 in 10.0 mi West 5.8 mph - N/A   Clear
5:15 AM 49.6 °F 48.0 °F 94% 30.08 in 10.0 mi Calm Calm - N/A   Clear
5:35 AM 49.3 °F 47.7 °F 94% 30.08 in 10.0 mi Calm Calm - N/A   Clear
5:55 AM 49.6 °F 48.2 °F 95% 30.09 in 10.0 mi Calm Calm - N/A   Mostly Cloudy
6:15 AM 48.6 °F 47.5 °F 96% 30.09 in 10.0 mi Calm Calm - N/A   Overcast
6:35 AM 50.4 °F 49.1 °F 95% 30.09 in 10.0 mi Calm Calm - N/A   Overcast
6:55 AM 50.9 °F 49.3 °F 94% 30.09 in 10.0 mi Calm Calm - N/A   Overcast
7:15 AM 53.1 °F 51.6 °F 95% 30.09 in 10.0 mi WNW 5.8 mph - N/A   Overcast
7:35 AM 55.0 °F 52.2 °F 90% 30.09 in 10.0 mi NNE 5.8 mph - N/A   Overcast
7:55 AM 55.4 °F 53.2 °F 92% 30.09 in 10.0 mi Calm Calm - N/A   Mostly Cloudy
8:15 AM 56.7 °F 54.3 °F 92% 30.09 in 10.0 mi Calm Calm - N/A   Mostly Cloudy
8:35 AM 58.6 °F 54.5 °F 86% 30.09 in 10.0 mi East 4.6 mph - N/A   Mostly Cloudy
8:55 AM 59.9 °F 51.3 °F 73% 30.09 in 10.0 mi East 6.9 mph - N/A   Mostly Cloudy
9:15 AM 61.7 °F 52.0 °F 70% 30.09 in 10.0 mi East 6.9 mph - N/A   Scattered Clouds
9:35 AM 63.0 °F 52.3 °F 68% 30.08 in 10.0 mi East 4.6 mph - N/A   Clear
9:55 AM 64.4 °F 52.7 °F 66% 30.07 in 10.0 mi SE 5.8 mph - N/A   Clear
10:15 AM 65.5 °F 52.7 °F 63% 30.07 in 10.0 mi East 11.5 mph - N/A   Clear
10:35 AM 66.6 °F 53.1 °F 62% 30.07 in 10.0 mi ESE 8.1 mph - N/A   Clear
10:55 AM 67.5 °F 53.6 °F 61% 30.07 in 10.0 mi SE 8.1 mph - N/A   Clear
11:15 AM 68.5 °F 54.3 °F 60% 30.07 in 10.0 mi SE 10.4 mph - N/A   Clear
11:35 AM 69.8 °F 54.5 °F 58% 30.07 in 10.0 mi SE 5.8 mph - N/A   Clear
11:55 AM 70.9 °F 55.0 °F 57% 30.06 in 10.0 mi SSE 10.4 mph 21.9 mph N/A   Clear
12:14 PM 72.0 °F 55.4 °F 56% 30.06 in 10.0 mi SE 11.5 mph 23.0 mph N/A   Clear
12:35 PM 72.9 °F 55.8 °F 55% 30.06 in 10.0 mi ESE 12.7 mph 20.7 mph N/A   Clear
12:55 PM 72.7 °F 55.6 °F 55% 30.05 in 10.0 mi ESE 4.6 mph 20.7 mph N/A   Scattered Clouds
1:15 PM 73.6 °F 56.8 °F 56% 30.05 in 10.0 mi East 6.9 mph 19.6 mph N/A   Scattered Clouds
1:35 PM 72.7 °F 55.2 °F 54% 30.04 in 10.0 mi East 10.4 mph 19.6 mph N/A   Mostly Cloudy
1:55 PM 73.2 °F 55.2 °F 53% 30.04 in 10.0 mi East 12.7 mph 18.4 mph N/A   Overcast
2:15 PM 74.1 °F 55.6 °F 52% 30.03 in 10.0 mi East 13.8 mph 20.7 mph N/A   Mostly Cloudy
2:35 PM 72.7 °F 54.1 °F 52% 30.03 in 10.0 mi ESE 10.4 mph 16.1 mph N/A   Overcast
2:55 PM 72.5 °F 53.6 °F 51% 30.02 in 10.0 mi East 10.4 mph 20.7 mph N/A   Overcast
3:15 PM 72.0 °F 54.1 °F 53% 30.02 in 10.0 mi East 10.4 mph 16.1 mph N/A   Overcast
3:35 PM 73.9 °F 55.0 °F 52% 30.01 in 10.0 mi ESE 11.5 mph 19.6 mph N/A   Mostly Cloudy
3:55 PM 74.3 °F 55.2 °F 51% 30.01 in 10.0 mi ESE 12.7 mph 18.4 mph N/A   Mostly Cloudy
4:15 PM 74.7 °F 54.5 °F 49% 30.00 in 10.0 mi ESE 12.7 mph 21.9 mph N/A   Mostly Cloudy
4:35 PM 73.9 °F 54.7 °F 51% 30.00 in 10.0 mi ESE 18.4 mph 25.3 mph N/A   Mostly Cloudy
4:55 PM 74.5 °F 55.4 °F 51% 29.98 in 10.0 mi East 15.0 mph 21.9 mph N/A   Scattered Clouds
5:15 PM 73.9 °F 54.5 °F 51% 29.97 in 10.0 mi East 15.0 mph 21.9 mph N/A   Scattered Clouds
5:35 PM 74.1 °F 54.5 °F 50% 29.97 in 10.0 mi East 11.5 mph 17.3 mph N/A   Overcast
5:55 PM 73.9 °F 54.5 °F 51% 29.96 in 10.0 mi East 11.5 mph 23.0 mph N/A   Mostly Cloudy
6:15 PM 73.8 °F 54.3 °F 51% 29.96 in 10.0 mi East 9.2 mph 19.6 mph N/A   Overcast
6:35 PM 73.6 °F 54.1 °F 50% 29.97 in 10.0 mi East 9.2 mph 16.1 mph N/A   Overcast
6:55 PM 73.2 °F 54.1 °F 51% 29.96 in 10.0 mi East 9.2 mph 19.6 mph N/A   Overcast
7:14 PM 72.9 °F 54.5 °F 52% 29.96 in 10.0 mi ESE 10.4 mph - N/A   Mostly Cloudy
7:35 PM 72.5 °F 53.4 °F 51% 29.96 in 10.0 mi ESE 13.8 mph 21.9 mph N/A   Mostly Cloudy
7:55 PM 72.3 °F 52.0 °F 49% 29.97 in 10.0 mi ESE 13.8 mph 25.3 mph N/A   Mostly Cloudy
8:15 PM 71.6 °F 51.4 °F 49% 29.97 in 10.0 mi ESE 13.8 mph 20.7 mph N/A   Clear
8:35 PM 70.7 °F 49.5 °F 47% 29.97 in 10.0 mi ESE 11.5 mph 19.6 mph N/A   Clear
8:55 PM 70.0 °F 48.7 °F 47% 29.97 in 10.0 mi ESE 12.7 mph 24.2 mph N/A   Scattered Clouds
9:15 PM 69.6 °F 48.7 °F 47% 29.96 in 10.0 mi ESE 12.7 mph 21.9 mph N/A   Mostly Cloudy
9:35 PM 69.1 °F 48.7 °F 48% 29.96 in 10.0 mi ESE 11.5 mph 20.7 mph N/A   Overcast
9:54 PM 69.1 °F 48.9 °F 49% 29.96 in 10.0 mi ESE 9.2 mph 20.7 mph N/A   Overcast
10:15 PM 68.9 °F 49.1 °F 49% 29.96 in 10.0 mi ESE 11.5 mph 20.7 mph N/A   Overcast
10:35 PM 68.5 °F 49.3 °F 50% 29.96 in 10.0 mi SE 11.5 mph 16.1 mph N/A   Overcast
10:54 PM 68.4 °F 49.6 °F 51% 29.96 in 10.0 mi ESE 6.9 mph - N/A   Overcast
11:15 PM 68.2 °F 49.1 °F 50% 29.96 in 10.0 mi ESE 10.4 mph 18.4 mph N/A   Overcast
11:35 PM 66.6 °F 50.0 °F 55% 29.95 in 10.0 mi SSE 5.8 mph - N/A   Scattered Clouds
11:55 PM 66.2 °F 50.4 °F 57% 29.95 in 10.0 mi ESE 8.1 mph - N/A   Scattered Clouds